,

(GMT )
Banff

Weather History for CWZG - November, 2013

Change the Weather History Date:

Tuesday, November 12, 2013

  Actual Average Record
Temperature  
Mean Temperature 26 °F -  
Max Temperature 37 °F - - ()
Min Temperature 14 °F - - ()
Degree Days  
Heating Degree Days 40    
Moisture  
Dew Point 19 °F    
Average Humidity 79    
Maximum Humidity 88    
Minimum Humidity 63    
Precipitation  
Precipitation 0.00 in - - ()
Sea Level Pressure  
Sea Level Pressure 30.30 in    
Wind  
Wind Speed 9 mph ()    
Max Wind Speed 16 mph    
Max Gust Speed 25 mph    
T = Trace of Precipitation, MM = Missing Value Source: Averaged Metar Reports

Daily Weather History Graph

Daily Weather History Graph

Search for Another Location

Airport or City:

Trip Planner

Search our weather history database for the weather conditions in past years. The results will help you decide how hot, cold, wet, or windy it might be!

Date:

Astronomy

Nov. 12, 2013 Rise Set
Actual Time 7:54 AM MST 4:57 PM MST
Civil Twilight 7:18 AM MST 5:33 PM MST
Nautical Twilight 6:38 AM MST 6:13 PM MST
Astronomical Twilight 5:59 AM MST 6:52 PM MST
Moon 2:43 PM MST (11/12) 2:16 AM MST (11/12)
Length of Visible Light 10h 15m
Length of Day
9h 02m
Waxing Gibbous, 77% of the Moon is Illuminated
Nov 12
Waxing Gibbous
Nov 17
Full
Nov 25
Last Quarter
Dec 2
New
Dec 9
First Quarter

Hourly Weather History & Observations

Time (MST) Temp. Windchill Dew Point Humidity Pressure Visibility Wind Dir Wind Speed Gust Speed Precip Events Conditions
12:00 AM 16.5 °F 5.1 °F 12.9 °F 86% 30.52 in - West 9.2 mph 20.7 mph N/A   Unknown
1:00 AM 15.1 °F 4.2 °F 12.0 °F 88% 30.51 in - WSW 8.1 mph - N/A   Unknown
2:00 AM 14.7 °F 2.9 °F 11.8 °F 88% 30.49 in - WSW 9.2 mph 19.6 mph N/A   Unknown
3:00 AM 14.9 °F 2.3 °F 11.8 °F 88% 30.47 in - WSW 10.4 mph - N/A   Unknown
4:00 AM 15.6 °F 4.0 °F 12.0 °F 86% 30.46 in - WSW 9.2 mph 19.6 mph N/A   Unknown
5:00 AM 14.9 °F 2.3 °F 11.5 °F 86% 30.43 in - WSW 10.4 mph - N/A   Unknown
6:00 AM 14.5 °F 1.1 °F 11.3 °F 87% 30.42 in - WSW 11.5 mph 21.9 mph N/A   Unknown
7:00 AM 14.4 °F 0.2 °F 11.3 °F 88% 30.39 in - WSW 12.7 mph 21.9 mph N/A   Unknown
8:00 AM 14.9 °F 1.6 °F 11.8 °F 88% 30.37 in - WSW 11.5 mph 19.6 mph N/A   Unknown
9:00 AM 16.5 °F 2.4 °F 13.1 °F 86% 30.32 in - SW 13.8 mph 23.0 mph N/A   Unknown
10:00 AM 19.0 °F 6.1 °F 14.7 °F 83% 30.29 in - SW 12.7 mph 20.7 mph N/A   Unknown
11:00 AM 23.9 °F 11.7 °F 16.9 °F 75% 30.24 in - SW 13.8 mph 20.7 mph N/A   Unknown
12:00 PM 27.5 °F 16.3 °F 19.0 °F 71% 30.19 in - SW 13.8 mph 23.0 mph N/A   Unknown
1:00 PM 31.8 °F 22.8 °F 20.8 °F 64% 30.14 in - WSW 11.5 mph 21.9 mph N/A   Unknown
2:00 PM 34.9 °F 26.2 °F 23.7 °F 64% 30.12 in - SW 12.7 mph 21.9 mph N/A   Unknown
3:00 PM 37.4 °F 28.2 °F 25.7 °F 63% 30.13 in - SW 16.1 mph 25.3 mph N/A   Unknown
4:00 PM 36.0 °F 28.5 °F 26.2 °F 68% 30.17 in - WSW 10.4 mph 19.6 mph N/A   Unknown
5:00 PM 37.0 °F 29.3 °F 28.0 °F 70% 30.17 in - SW 11.5 mph 20.7 mph N/A   Unknown
6:00 PM 36.5 °F 28.2 °F 28.6 °F 73% 30.19 in - SW 12.7 mph 21.9 mph N/A   Unknown
7:00 PM 33.4 °F 25.4 °F 27.1 °F 78% 30.22 in - WSW 10.4 mph 20.7 mph N/A   Unknown
8:00 PM 34.0 °F 26.0 °F 27.7 °F 78% 30.23 in - SW 10.4 mph 18.4 mph N/A   Unknown
9:00 PM 33.4 °F 28.1 °F 27.3 °F 78% 30.23 in - SW 5.8 mph - N/A   Unknown
10:00 PM 31.5 °F 25.8 °F 26.4 °F 82% 30.22 in - SW 5.8 mph - N/A   Unknown
11:00 PM 32.0 °F 24.8 °F 27.0 °F 82% 30.21 in - SW 8.1 mph - N/A   Unknown